Kansas City International, MO

11:23 AM CST on December 05, 2019 (GMT -0600)
Kansas City International

Weather History for KMCI - October, 2019

Change the Weather History Date:

Saturday, October 19, 2019

  Actual Average Record
Temperature  
Mean Temperature 58 °F 55 °F  
Max Temperature 67 °F 66 °F 87 °F (1963)
Min Temperature 49 °F 45 °F 21 °F (1972)
Degree Days  
Heating Degree Days 7 10  
Month to date heating degree days 184 146  
Since 1 July heating degree days 184 213  
Cooling Degree Days 0 1  
Month to date cooling degree days 22 24  
Year to date cooling degree days 1449 1356  
Growing Degree Days 8 (Base 50)    
Moisture  
Dew Point 51 °F    
Average Humidity 79    
Maximum Humidity 100    
Minimum Humidity 58    
Precipitation  
Precipitation 0.18 in 0.10 in 1.21 in (1983)
Month to date precipitation 1.29 2.08  
Year to date precipitation 50.16 34.10  
Snow  
Snow 0.00 in 0.00 in 0.00 in ()
Month to date snowfall 0.0 0.1  
Since 1 July snowfall T 0.1  
Since 1 September snowfall T 0.1  
Snow Depth 0.00 in    
Sea Level Pressure  
Sea Level Pressure 29.77 in    
Wind  
Wind Speed 6 mph (SW)    
Max Wind Speed 12 mph    
Max Gust Speed 19 mph    
Visibility 9 miles    
Events Rain    
T = Trace of Precipitation, MM = Missing Value Source: NWS Daily Summary

Daily Weather History Graph

Daily Weather History Graph

Search for Another Location

Airport or City:

Astronomy

Oct. 19, 2019 Rise Set
Actual Time 7:32 AM CDT 6:34 PM CDT
Civil Twilight 7:05 AM CDT 7:01 PM CDT
Nautical Twilight 6:34 AM CDT 7:32 PM CDT
Astronomical Twilight 6:03 AM CDT 8:03 PM CDT
Moon 10:45 PM CDT (10/19) 1:04 PM CDT (10/19)
Length of Visible Light 11h 56m
Length of Day
11h 01m
Waning Gibbous, 69% of the Moon is Illuminated
Oct 19
Waning Gibbous
Oct 21
Last Quarter
Oct 27
New
Nov 4
First Quarter
Nov 12
Full

Hourly Weather History & Observations

Time (CDT) Temp. Dew Point Humidity Pressure Visibility Wind Dir Wind Speed Gust Speed Precip Events Conditions
12:53 AM 57.0 °F 46.9 °F 69% 29.72 in 10.0 mi SSW 4.6 mph - N/A   Overcast
2:53 AM 52.0 °F 46.9 °F 83% 29.73 in 10.0 mi SSE 6.9 mph - N/A   Overcast
3:53 AM 53.1 °F 48.0 °F 83% 29.71 in 10.0 mi South 8.1 mph - N/A   Overcast
4:53 AM 54.0 °F 50.0 °F 86% 29.73 in 5.0 mi SSW 10.4 mph - 0.03 in Rain Light Rain
5:53 AM 53.1 °F 52.0 °F 96% 29.72 in 5.0 mi South 9.2 mph - 0.06 in Rain Rain
6:53 AM 52.0 °F 51.1 °F 97% 29.74 in 8.0 mi South 9.2 mph - 0.07 in Rain Light Rain
7:53 AM 52.0 °F 51.1 °F 97% 29.75 in 9.0 mi South 6.9 mph - 0.01 in Rain Light Rain
8:53 AM 53.1 °F 52.0 °F 96% 29.77 in 8.0 mi SW 5.8 mph - 0.01 in   Overcast
9:53 AM 54.0 °F 53.1 °F 97% 29.78 in 8.0 mi WSW 3.5 mph - N/A   Overcast
10:10 AM 54.0 °F 53.1 °F 97% 29.79 in 9.0 mi SW 5.8 mph - N/A   Overcast
11:46 AM 57.0 °F 54.0 °F 89% 29.80 in 10.0 mi WNW 6.9 mph - N/A   Overcast
11:53 AM 57.0 °F 54.0 °F 89% 29.79 in 10.0 mi WNW 8.1 mph - N/A   Overcast
12:53 PM 57.0 °F 54.0 °F 89% 29.79 in 10.0 mi WNW 6.9 mph - N/A   Overcast
1:50 PM 62.6 °F 55.4 °F 77% 29.78 in 10.0 mi North 6.9 mph - N/A   Mostly Cloudy
1:53 PM 62.1 °F 55.0 °F 78% 29.78 in 10.0 mi NNW 8.1 mph - N/A   Mostly Cloudy
2:53 PM 64.0 °F 53.1 °F 67% 29.77 in 10.0 mi North 9.2 mph - N/A   Mostly Cloudy
3:17 PM 64.9 °F 52.0 °F 63% 29.78 in 10.0 mi North 10.4 mph 17.3 mph N/A   Mostly Cloudy
3:53 PM 66.0 °F 52.0 °F 60% 29.77 in 10.0 mi NNE 9.2 mph - N/A   Mostly Cloudy
4:53 PM 64.9 °F 51.1 °F 61% 29.77 in 10.0 mi NNW 5.8 mph - N/A   Scattered Clouds
5:53 PM 62.1 °F 50.0 °F 65% 29.78 in 10.0 mi ENE 3.5 mph - N/A   Scattered Clouds
6:53 PM 60.1 °F 50.0 °F 69% 29.79 in 10.0 mi Calm Calm - N/A   Scattered Clouds
7:53 PM 57.0 °F 48.9 °F 74% 29.81 in 10.0 mi Calm Calm - N/A   Partly Cloudy
8:53 PM 54.0 °F 48.9 °F 83% 29.81 in 10.0 mi SE 5.8 mph - N/A   Clear
9:53 PM 52.0 °F 48.9 °F 89% 29.83 in 10.0 mi SSE 4.6 mph - N/A   Clear
10:53 PM 53.1 °F 50.0 °F 89% 29.84 in 9.0 mi South 5.8 mph - N/A   Clear
11:53 PM 51.1 °F 50.0 °F 96% 29.84 in 6.0 mi South 3.5 mph - N/A   Clear